CZ-6A DEB, 56662

Orbit data source: Space-Track

CZ-6A DEB, 56662 is space debris in SSO originally from a launch on Fri, 11 Nov 2022 UTC launched from the Taiyaun Space Center, China (TSC). Debris objects in space refer to the collection of defunct objects orbiting the Earth. Examples of debris include non-operational satellites, rocket bodies, and fragments generated from explosions, collisions, or faulty payload assembly.

Loading next visibility...
Identifier
56662, 2022-151AGN
Orbit
SSO
Country
Flag of CNCN / PRC
Related business
Manufacturer
SAST
Mission
Spacecraft
Bus & Motor
Unknown
Mass
Unknown
Launch date (UTC)
2022-11-11 (4 years ago)
Launch vehicle
Unknown
Launch site
Taiyaun Space Center, China (TSC)
Object type
Payload
Rocket body
Debris
Shape & HBR
Unknown shape, 0.1 m
Radar Cross Section
Small (<0.1 m²)

Expand to show TLE details & history
Last TLE update: 14 hours ago

TLE from 14 hours ago
0 CZ-6A DEB
1 56662U 22151AGN 26236.46564863  .00000206  00000-0  13857-3 0  9992
2 56662  98.8498 233.5718 0067112 182.5921 177.4912 14.09935825176479
Epoch: 2026-08-24T11:10Z
TLE epoch observation values (Epoch: 2026-08-24T11:10:32.041Z)
Latitude
0.00006°
Longitude
93.19133°
Altitude
911.025 km
Speed
7.372 km/s
True Right ascension
15h 34m 17s
True Declination
0° 00' 00"
Sunlit
Object was in daylight at epoch
Visualization orbit readout
Latitude
Unknown
Longitude
Unknown
Altitude
Unknown
Speed
Unknown
Apparent Right ascension
Unknown
Apparent Declination
Unknown
Sunlit
N/A
Visualization observer readout
Local Sidereal Time
15:56:25
Azimuth
Unknown
Elevation
Unknown
Doppler factor
Unknown
Orbital elements
Apogee altitude
905.325 km
Perigee altitude
808.215 km
Semi-major axis
7,234.907 km
Eccentricity
0.00671
Inclination
98.8498°
RAAN
233.5718°
Arg. of periapsis
182.5921°
True anomaly
177.52458°
Mean anomaly
177.4912°
Eccentric anomaly
177.50792°
Mean motion
3.5269 °/min
Orbital period
102.07 mins
BSTAR
0.00013857
Loading maneuver chart data...
Computing Atmospheric mass density...

Documentation

Showing up to 5 results
|